Location: El Chorro
(10.0985°N, 67.3542°W)
Time: 19:13:57
(UTC+00:00)

ATLAS 5 CENTAUR R/B - Pass Details

Date: 15 November 2025
Orbit: 373 x 1090 km, 63.3° (Epoch: 06 December)

Event Time Altitude Azimuth Distance (km) Brightness Sun altitude
Rises 23:37:02 0° 336° (NNW) 3,255 5.4 -22.7°
Reaches altitude 10° 23:39:16 10° 336° (NNW) 2,429 4.7 -23.2°
Maximum altitude 23:45:03 88° 247° (WSW) 948 2.3 -24.6°
Drops below altitude 10° 23:51:52 10° 157° (SSE) 2,848 4.9 -26.2°
Sets 23:54:40 0° 157° (SSE) 3,852 5.6 -26.9°
